User: anonymous   Login
Location: Unspecified
(0.0000°N, 0.0000°E)
Time: 06:52:09
(UTC+00:00)
Language:

CUBESAT XI-V - Orbit

View from above orbital plane
View from above orbital plane
View from above satellite
View from above satellite

Ground track
Ground track

The orbit data is extracted from the following two-line orbital elements,

1 28895U 05043F   17087.42159493 +.00000288 +00000-0 +64367-4 0  9992
2 28895 097.8550 253.4787 0017696 043.1108 317.1477 14.63362684608445
Epoch (UTC): 28 March 2017 10:07:05
Eccentricity: 0.0017696
inclination: 97.8550°
perigee height: 670 km
apogee height: 695 km
right ascension of ascending node: 253.4787°
argument of perigee: 43.1108°
revolutions per day: 14.63362684
mean anomaly at epoch: 317.1477°
orbit number at epoch: 60844

The dashed part of the orbit path shows where the satellite is in the earth's shadow,  

DLR